Location: Koslow
(50.3020°N, 18.5663°E)
Time: 21:40:01
(UTC+00:00)

STARLINK-1299 - Pass Details

Date: 07 June 2020
Orbit: 568 x 571 km, 53.0° (Epoch: 11 July)

Event Time Altitude Azimuth Distance (km) Brightness Sun altitude
Exits shadow 01:24:19 10° 237° (WSW) 1,854 5.7 -8.8°
Maximum altitude 01:28:31 70° 153° (SSE) 608 3.7 -8.4°
Drops below altitude 10° 01:32:46 10° 71° (ENE) 1,876 7.3 -8.0°
Sets 01:35:02 0° 69° (ENE) 2,776 8.4 -7.8°
